This demonstration page uses our WeatherBlox Daily Observations layout. Learn more.

Left ArrowRight Arrow

38.20091, -84.87328

Hourly Observations for January 2, 2016

Temp ( °F °C ) Dew Point ( °F °C ) Humidity (%) Winds ( mph kmh ) Pressure ( in mb ) Visibility ( mi km ) Precip ( " mm )
12:53 am 00:53 Clear 28 -2.2 21 -6.1 75 75 WSW 5 7 30.29 1026 10 16 0.00 0.00
1:53 am 01:53 Clear 27 -2.8 21 -6.1 78 78 WSW 5 7 30.29 1026 10 16 0.00 0.00
2:53 am 02:53 Clear 26 -3.3 21 -6.1 81 81 WSW 6 9 30.28 1025 10 16 0.00 0.00
3:53 am 03:53 Clear 26 -3.3 21 -6.1 81 81 SW 7 11 30.27 1025 10 16 0.00 0.00
4:53 am 04:53 Clear 25 -3.9 21 -6.1 85 85 SW 8 13 30.26 1025 10 16 0.00 0.00
5:53 am 05:53 Clear 25 -3.9 20 -6.7 81 81 SW 7 11 30.26 1025 10 16 0.00 0.00
6:53 am 06:53 Clear 25 -3.9 20 -6.7 81 81 SW 7 11 30.24 1024 10 16 0.00 0.00
7:53 am 07:53 Clear 25 -3.9 20 -6.7 81 81 SW 7 11 30.25 1025 10 16 0.00 0.00
8:53 am 08:53 Sunny 28 -2.2 22 -5.6 78 78 SW 8 13 30.27 1025 10 16 0.00 0.00
9:53 am 09:53 Sunny 32 0 24 -4.4 73 73 SW 9 15 30.27 1025 10 16 0.00 0.00
10:53 am 10:53 Sunny 36 2.2 24 -4.4 62 62 WSW 10 17 30.27 1025 10 16 0.00 0.00
11:53 am 11:53 Sunny 40 4.4 24 -4.4 53 53 SW 14 22 30.23 1024 10 16 0.00 0.00
12:53 pm 12:53 Sunny 42 5.6 23 -5 47 47 SW 15 24 30.20 1023 10 16 0.00 0.00
1:53 pm 13:53 Sunny 43 6.1 22 -5.6 43 43 WSW 13 20 30.16 1022 10 16 0.00 0.00
2:53 pm 14:53 Sunny 44 6.7 22 -5.6 41 41 SW 17 28 30.15 1021 10 16 0.00 0.00
3:53 pm 15:53 Sunny 44 6.7 23 -5 43 43 WSW 9 15 30.14 1021 10 16 0.00 0.00
4:53 pm 16:53 Sunny 43 6.1 22 -5.6 43 43 WSW 8 13 30.14 1021 10 16 0.00 0.00
5:53 pm 17:53 Clear 38 3.3 22 -5.6 52 52 SW 8 13 30.14 1021 10 16 0.00 0.00
6:53 pm 18:53 Clear 36 2.2 22 -5.6 57 57 SW 3 6 30.14 1021 10 16 0.00 0.00
7:53 pm 19:53 Clear 33 0.6 22 -5.6 64 64 SW 6 9 30.14 1021 10 16 0.00 0.00
8:53 pm 20:53 Clear 33 0.6 22 -5.6 64 64 SW 5 7 30.13 1020 10 16 0.00 0.00
9:53 pm 21:53 Clear 30 -1.1 21 -6.1 69 69 SSW 3 6 30.13 1020 10 16 0.00 0.00
10:53 pm 22:53 Clear 27 -2.8 20 -6.7 75 75 S 5 7 30.11 1020 10 16 0.00 0.00
11:53 pm 23:53 Clear 29 -1.7 21 -6.1 72 72 SW 7 11 30.10 1019 10 16 0.00 0.00

Powered by AerisWeather